Wetbulb
31.27 32.13 31.66 31.13 32.26 32.19 33.88 32.79 32.10 38.65 40.55 41.74 41.56 41.26 41.45 41.79 41.80 41.82 42.05 42.87 44.34 44.51 45.11 45.55 46.14 47.09 48.49
28.59 29.70 30.20 30.94 30.61 30.03 33.13 34.35 31.35 36.19 39.42 40.36 39.60 39.95 40.68 40.68 40.52 40.47 40.58 41.16 41.57 42.85 42.96 43.24 43.91 44.88 45.77
28.50 28.17 28.62 29.49 28.78 29.48 30.38 30.14 32.93 36.44 37.48 37.99 38.71 38.53 39.34 39.73 39.42 38.92 39.40 39.77 40.58 41.62 41.04 41.20 41.78 42.82 43.85
27.79 27.49 27.57 28.93 28.26 27.43 27.73 28.49 29.12 32.67 34.72 35.58 36.94 36.69 37.21 38.33 37.44 36.96 38.24 38.74 39.58 40.19 39.94 39.97 40.04 40.83 41.67
27.46 27.31 27.61 27.54 26.90 27.72 27.60 28.03 28.34 28.88 29.65 29.57 30.65 29.36 30.98 33.80 34.21 36.82 37.92 38.18 38.37 38.62 38.83 39.06 39.22 39.81 40.34
26.39 26.91 27.81 27.16 27.20 27.46 27.49 26.59 25.82 30.17 29.05 28.55 29.33 29.60 30.04 29.80 34.93 36.25 36.75 37.01 37.08 37.11 37.30 37.83 38.17 38.37 38.54
28.03 28.59 28.96 27.78 27.65 27.42 27.47 27.27 28.24 31.30 28.61 27.16 28.48 28.31 29.52 30.47 33.82 36.58 35.85 36.24 36.32 36.72 36.74 36.97 36.97 37.07 37.24
29.45 29.11 28.73 29.74 29.99 31.46 32.16 29.93 30.49 30.61 29.47 25.15 26.43 26.57 27.94 28.10 32.91 36.04 36.13 35.64 35.30 35.44 35.70 35.71 35.96 36.13 36.18
36.00 36.39 36.92 37.59 36.94 31.50 27.54 25.65 26.25 26.35 28.29 26.68 25.87 25.06 25.82 25.99 28.15 32.73 33.91 33.98 34.20 34.66 34.80 34.94 34.87 34.94 30.58
29.66 31.95 33.96 32.35 35.26 30.66 28.74 25.24 25.87 23.81 26.44 26.69 26.20 25.51 23.08 25.34 26.02 26.87 27.24 31.49 33.05 33.27 33.58 33.89 33.80 28.61 27.29
29.31 29.01 29.48 28.64 28.40 28.42 28.10 27.32 25.12 25.40 28.03 27.42 23.56 24.92 25.62 23.88 25.10 25.74 25.94 26.03 26.65 27.62 30.80 32.03 32.40 32.04 27.57
28.97 30.27 28.56 26.69 27.33 27.32 28.05 28.01 27.88 27.50 28.23 27.66 20.65 21.41 19.04 22.73 23.07 24.72 24.62 25.76 25.67 25.19 25.44 28.59 30.64 31.71 32.13
29.80 28.78 27.51 27.79 27.12 27.03 27.73 27.89 27.30 27.10 28.47 27.34 23.88 24.01 21.81 22.79 22.83 23.66 24.99 24.55 24.89 24.64 23.99 24.19 24.50 25.46 23.82
28.61 28.91 26.85 25.07 25.43 26.49 26.05 27.61 26.11 24.58 27.37 27.45 25.78 23.38 22.57 23.36 23.69 23.43 24.03 21.78 22.94 23.32 23.17 23.49 25.04 25.74 24.97
27.17 26.05 25.97 26.21 26.12 26.86 26.74 26.61 24.20 18.95 19.23 22.48 25.44 25.35 24.45 23.20 21.95 23.38 23.10 23.19 24.19 24.06 23.87 23.15 24.40 25.08 25.22
26.23 25.48 24.94 24.52 24.30 25.48 26.42 25.01 23.22 22.24 17.66 17.21 15.83 15.37 17.61 20.65 26.94 22.42 22.97 22.80 23.81 24.16 24.40 23.26 23.13 25.30 26.03
23.96 22.85 21.54 21.23 24.74 24.51 25.12 24.76 23.54 22.11 13.86 13.77 7.13 16.18 16.72 14.95 19.63 29.76 22.20 23.01 23.17 22.99 23.83 23.38 22.28 24.05 25.46
MSLP
1017.85 1017.38 1017.14 1016.81 1016.55 1016.29 1015.96 1015.74 1015.57 1015.13 1014.51 1013.93 1013.74 1013.55 1013.14 1012.52 1012.21 1012.09 1011.85 1011.28 1010.48 1010.19 1009.85 1009.21 1008.90 1008.15 1007.61
1017.86 1017.48 1017.21 1016.77 1016.57 1016.32 1015.92 1015.66 1015.53 1015.08 1014.40 1013.80 1013.93 1013.47 1013.09 1012.58 1012.15 1011.86 1011.82 1011.52 1011.24 1010.63 1010.20 1009.96 1009.45 1008.46 1008.30
1017.74 1017.57 1017.24 1016.71 1016.49 1016.13 1015.90 1015.73 1015.27 1014.85 1014.45 1014.01 1013.84 1013.50 1013.04 1012.65 1012.20 1011.89 1011.59 1011.40 1011.13 1010.76 1010.74 1010.33 1009.95 1009.25 1008.79
1017.33 1017.23 1017.14 1016.64 1016.45 1016.30 1015.87 1015.61 1015.18 1014.52 1014.24 1014.08 1013.78 1013.45 1013.02 1012.63 1012.40 1012.07 1011.73 1011.34 1011.07 1010.73 1010.49 1010.34 1010.36 1009.77 1009.11
1016.87 1016.70 1016.67 1016.59 1016.46 1016.07 1015.86 1015.43 1014.95 1014.54 1014.16 1013.96 1013.75 1013.49 1013.04 1012.71 1012.41 1011.99 1011.67 1011.41 1011.17 1010.87 1010.38 1010.08 1009.62 1009.01 1008.79
1016.09 1016.02 1016.01 1015.98 1015.84 1015.80 1015.61 1015.39 1014.98 1014.27 1014.17 1013.85 1013.54 1013.36 1012.96 1012.63 1012.04 1011.67 1011.50 1011.37 1011.25 1011.25 1010.99 1010.50 1009.99 1009.50 1008.96
1014.98 1015.09 1015.14 1015.27 1015.30 1015.24 1015.11 1014.98 1014.63 1014.07 1014.15 1013.64 1013.44 1013.19 1012.77 1012.26 1011.76 1011.16 1010.94 1011.04 1011.11 1010.98 1010.80 1010.65 1010.31 1009.92 1009.55
1013.74 1014.14 1014.29 1014.30 1014.43 1014.40 1014.36 1014.27 1013.95 1013.65 1013.75 1013.63 1013.32 1013.10 1012.42 1012.07 1011.66 1011.02 1010.91 1011.02 1011.13 1010.92 1010.55 1010.24 1009.99 1009.77 1009.46
1012.86 1013.17 1013.23 1013.15 1013.27 1013.72 1013.91 1014.07 1013.69 1013.39 1013.40 1013.46 1013.30 1013.05 1012.33 1012.05 1011.74 1011.44 1011.31 1011.15 1010.86 1010.58 1010.30 1010.08 1009.81 1009.55 1009.57
1012.44 1012.60 1012.68 1012.94 1012.93 1013.19 1013.43 1013.72 1013.77 1013.44 1013.22 1013.42 1013.28 1013.34 1012.79 1012.05 1011.74 1011.61 1011.33 1011.06 1010.74 1010.45 1010.08 1009.75 1009.47 1009.46 1009.57
1011.98 1012.25 1012.45 1012.74 1012.78 1012.85 1012.93 1013.17 1013.34 1013.23 1012.91 1013.06 1013.28 1013.41 1013.41 1012.70 1011.65 1011.24 1011.19 1010.97 1010.68 1010.40 1010.08 1009.79 1009.40 1009.12 1008.96
1011.51 1011.80 1012.05 1012.34 1012.26 1012.31 1012.42 1012.58 1012.75 1012.79 1012.69 1012.92 1013.27 1013.26 1013.36 1012.92 1012.27 1011.16 1010.94 1010.73 1010.30 1009.98 1009.93 1009.56 1009.18 1008.91 1008.71
1010.79 1011.11 1011.39 1011.51 1011.75 1011.99 1012.07 1012.23 1012.40 1012.41 1012.28 1012.38 1012.62 1012.63 1012.75 1012.44 1011.91 1011.51 1011.26 1010.39 1010.19 1010.14 1010.03 1009.81 1009.55 1009.20 1008.91
1010.14 1010.48 1010.89 1011.28 1011.48 1011.59 1011.86 1011.96 1012.13 1012.17 1011.96 1011.84 1011.96 1012.19 1012.29 1011.96 1011.70 1010.88 1010.73 1010.81 1009.95 1009.87 1009.78 1009.39 1009.12 1008.94 1008.82
1009.68 1010.11 1010.49 1010.79 1011.00 1011.12 1011.30 1011.59 1011.81 1011.90 1011.89 1011.77 1011.55 1011.57 1011.58 1011.49 1011.04 1010.22 1009.67 1009.48 1009.10 1008.86 1008.95 1008.73 1008.33 1008.06 1007.86
1009.26 1009.61 1009.96 1010.28 1010.53 1010.80 1010.99 1011.25 1011.34 1011.32 1011.52 1011.73 1011.75 1011.68 1011.20 1010.17 1009.74 1009.38 1009.24 1008.91 1008.44 1008.24 1008.03 1007.88 1007.30 1006.67 1006.63
1008.77 1009.15 1009.51 1009.82 1010.12 1010.38 1010.59 1010.76 1010.84 1010.93 1011.10 1011.22 1011.29 1011.70 1011.32 1010.38 1008.88 1008.41 1008.59 1008.13 1007.85 1007.52 1007.20 1007.00 1006.70 1005.89 1005.74
Wind_Speed
2 2 3 4 5 5 4 4 4 13 13 10 11 15 14 13 12 13 15 15 15 15 17 17 18 17 17
3 2 3 3 3 4 4 3 4 9 13 7 11 13 13 13 11 13 13 15 13 12 15 16 17 18 17
4 1 3 2 3 3 3 4 4 11 8 6 11 14 13 12 11 13 14 14 14 11 12 13 16 16 16
4 3 3 3 2 3 3 2 4 5 5 6 11 13 12 12 12 12 11 12 12 12 13 14 15 14 14
4 2 3 3 4 2 3 4 4 3 2 3 4 3 4 8 8 10 10 10 8 11 15 15 16 16 16
3 4 5 3 3 3 2 2 3 2 2 4 2 4 3 4 13 16 11 8 4 10 13 15 15 15 16
6 6 5 5 3 3 4 3 4 5 1 5 2 3 3 6 12 11 5 3 6 15 17 14 12 16 16
5 5 6 6 6 5 5 5 4 4 3 4 1 3 3 3 7 3 5 6 11 15 12 13 17 18 14
14 14 15 17 10 3 2 3 5 2 3 2 1 3 2 3 3 5 9 13 15 14 14 17 15 14 8
4 7 9 5 8 4 3 3 3 3 2 2 1 2 4 2 2 3 3 13 15 15 18 17 16 4 3
6 4 4 4 4 4 4 4 3 5 2 1 1 1 2 4 3 3 3 5 6 8 14 14 15 10 4
4 5 4 4 4 4 4 4 4 5 4 1 2 3 2 5 6 3 4 6 5 5 4 11 14 14 17
6 4 4 4 3 2 3 4 4 4 5 4 4 4 3 6 7 8 8 3 5 7 4 4 4 5 7
4 4 3 2 3 3 3 2 3 3 5 5 4 4 4 6 8 10 7 5 2 4 4 4 6 6 7
4 4 4 4 4 3 3 2 4 2 2 2 4 4 5 8 9 10 9 9 8 9 5 6 7 7 8
4 4 4 4 4 2 2 4 5 4 2 2 1 2 3 7 18 9 8 8 7 7 7 7 9 8 7
5 5 4 3 5 3 3 4 5 4 3 2 2 2 5 6 4 15 8 7 7 8 7 8 9 11 6
Wind_Direction
270 294 297 320 319 330 318 305 329 333 329 322 338 337 340 343 348 357 360 2 1 3 7 10 4 13 14
270 280 262 293 282 298 308 314 320 321 323 321 336 339 335 338 346 344 353 353 355 358 7 5 7 8 8
273 281 277 284 304 296 279 296 300 310 319 334 332 331 324 324 335 341 338 348 348 356 8 7 4 4 7
248 255 252 280 271 275 300 269 292 298 279 329 331 329 320 318 330 328 325 342 344 354 355 3 356 357 8
246 240 261 281 268 265 277 292 283 250 289 298 297 305 309 321 316 315 319 331 342 357 349 349 352 356 359
215 242 252 235 247 255 266 300 320 223 306 294 276 296 293 296 306 309 293 299 348 352 346 343 344 351 350
219 217 251 222 231 252 253 237 258 278 302 290 251 283 279 302 310 304 284 224 349 341 336 336 341 339 336
195 216 230 239 224 235 252 255 260 268 192 273 264 269 278 288 301 344 56 353 335 331 328 334 327 327 335
233 243 252 256 248 219 260 269 291 250 202 223 273 280 270 291 303 305 322 323 322 319 319 323 321 322 334
240 256 262 268 259 251 219 230 254 305 200 215 288 347 324 261 263 276 299 315 319 313 317 318 319 320 280
217 221 215 229 237 237 212 203 206 234 221 141 204 188 213 297 298 290 304 300 298 299 307 308 316 310 301
199 210 205 219 228 223 222 211 229 241 274 199 228 188 209 277 277 300 305 285 278 295 301 302 308 305 308
205 203 193 202 193 193 225 226 235 245 255 221 200 250 214 265 279 285 299 300 283 281 279 275 279 295 303
204 191 160 157 190 181 188 197 239 253 257 251 233 186 260 256 265 276 273 264 232 249 241 257 262 255 252
183 187 192 186 201 187 180 201 249 230 241 264 258 248 243 253 269 265 271 270 263 273 258 259 259 242 239
191 191 192 187 187 163 180 221 251 259 241 218 212 344 299 273 226 253 262 258 268 259 257 266 280 270 236
183 185 176 183 206 174 201 228 248 259 233 224 179 195 271 268 267 227 235 260 264 270 255 247 256 271 265